�������l�o���
Date,Time,MP-1(��Sv/h),MP-2(��Sv/h),MP-3(��Sv/h),MP-4(��Sv/h),MP-5(��Sv/h),MP-6(��Sv/h),MP-7(��Sv/h),MP-8(��Sv/h),����,����(m/s),���J
2021/11/29,00:00,0.581,0.877,0.555,1.085,0.760,0.351,0.615,0.581,���k��,4.1,��
2021/11/29,00:10,0.581,0.877,0.556,1.085,0.759,0.351,0.615,0.580,���k��,2.6,��
2021/11/29,00:20,0.582,0.876,0.556,1.086,0.760,0.353,0.613,0.581,���k��,3.9,��
2021/11/29,00:30,0.582,0.877,0.556,1.085,0.758,0.352,0.615,0.581,��,2.9,��
2021/11/29,00:40,0.583,0.878,0.555,1.085,0.759,0.354,0.617,0.581,��,2.8,��
2021/11/29,00:50,0.582,0.880,0.556,1.085,0.758,0.352,0.615,0.580,���쐼,2.0,��
2021/11/29,01:00,0.581,0.877,0.556,1.084,0.757,0.353,0.615,0.579,���쐼,3.2,��
2021/11/29,01:10,0.581,0.877,0.556,1.088,0.758,0.353,0.614,0.581,���쐼,3.5,��
2021/11/29,01:20,0.582,0.878,0.555,1.086,0.757,0.353,0.615,0.580,���쐼,4.4,��
2021/11/29,01:30,0.582,0.877,0.556,1.086,0.759,0.353,0.613,0.580,���쐼,4.5,��
2021/11/29,01:40,0.581,0.876,0.556,1.086,0.759,0.353,0.615,0.581,��,4.0,��
2021/11/29,01:50,0.583,0.877,0.556,1.085,0.757,0.352,0.614,0.580,���쐼,4.0,��
2021/11/29,02:00,0.582,0.877,0.556,1.087,0.758,0.351,0.614,0.579,���쐼,5.6,��
2021/11/29,02:10,0.582,0.877,0.555,1.084,0.759,0.352,0.615,0.580,���쐼,6.0,��
2021/11/29,02:20,0.580,0.876,0.556,1.087,0.758,0.353,0.613,0.581,���쐼,5.7,��
2021/11/29,02:30,0.581,0.875,0.556,1.084,0.757,0.353,0.615,0.581,���쐼,4.2,��
2021/11/29,02:40,0.583,0.876,0.555,1.084,0.758,0.353,0.615,0.580,���쐼,3.8,��
2021/11/29,02:50,0.581,0.876,0.555,1.085,0.759,0.351,0.614,0.580,���쐼,3.4,��
2021/11/29,03:00,0.580,0.877,0.556,1.084,0.758,0.352,0.613,0.579,���쐼,4.7,��
2021/11/29,03:10,0.581,0.876,0.557,1.084,0.757,0.351,0.615,0.582,���쐼,5.2,��
2021/11/29,03:20,0.581,0.876,0.555,1.086,0.759,0.352,0.615,0.579,���쐼,5.2,��
2021/11/29,03:30,0.581,0.876,0.556,1.084,0.758,0.352,0.614,0.580,���쐼,4.8,��
2021/11/29,03:40,0.582,0.877,0.555,1.085,0.759,0.353,0.614,0.580,��,3.9,��
2021/11/29,03:50,0.581,0.876,0.556,1.084,0.758,0.353,0.615,0.580,��,3.5,��
2021/11/29,04:00,0.581,0.877,0.556,1.087,0.758,0.353,0.615,0.579,��,3.6,��
2021/11/29,04:10,0.582,0.879,0.557,1.085,0.757,0.352,0.615,0.582,��,4.2,��
2021/11/29,04:20,0.581,0.877,0.555,1.084,0.757,0.352,0.614,0.580,���쐼,4.3,��
2021/11/29,04:30,0.580,0.876,0.557,1.083,0.756,0.353,0.614,0.582,���쐼,4.4,��
2021/11/29,04:40,0.580,0.877,0.557,1.085,0.758,0.353,0.614,0.581,���쐼,3.8,��
2021/11/29,04:50,0.581,0.876,0.555,1.086,0.757,0.352,0.614,0.580,���쐼,4.1,��
2021/11/29,05:00,0.582,0.874,0.557,1.085,0.758,0.352,0.614,0.581,���쐼,4.7,��
2021/11/29,05:10,0.582,0.876,0.555,1.085,0.757,0.353,0.615,0.581,���쐼,4.5,��
2021/11/29,05:20,0.583,0.876,0.556,1.084,0.759,0.351,0.615,0.580,��,4.1,��
2021/11/29,05:30,0.580,0.877,0.554,1.083,0.758,0.352,0.615,0.581,���쐼,3.9,��
2021/11/29,05:40,0.579,0.876,0.555,1.086,0.758,0.352,0.614,0.580,���쐼,4.6,��
2021/11/29,05:50,0.580,0.876,0.555,1.083,0.756,0.353,0.614,0.579,���쐼,4.2,��
2021/11/29,06:00,0.581,0.876,0.555,1.084,0.756,0.353,0.614,0.580,���쐼,3.9,��
2021/11/29,06:10,0.582,0.875,0.554,1.084,0.757,0.353,0.614,0.580,���쐼,3.9,��
2021/11/29,06:20,0.582,0.875,0.556,1.086,0.759,0.352,0.613,0.581,���쐼,3.4,��
2021/11/29,06:30,0.583,0.876,0.555,1.085,0.757,0.353,0.615,0.581,�쐼,3.6,��
2021/11/29,06:40,0.581,0.877,0.554,1.084,0.756,0.352,0.614,0.580,�쐼,4.4,��
2021/11/29,06:50,0.581,0.876,0.556,1.086,0.758,0.352,0.614,0.582,�쐼,4.4,��
2021/11/29,07:00,0.579,0.877,0.556,1.084,0.756,0.353,0.614,0.580,�쐼,4.3,��
2021/11/29,07:10,0.580,0.875,0.557,1.085,0.756,0.352,0.615,0.580,�쐼,3.9,��
2021/11/29,07:20,0.581,0.877,0.558,1.084,0.757,0.351,0.614,0.581,���쐼,3.1,��
2021/11/29,07:30,0.582,0.876,0.556,1.085,0.758,0.352,0.614,0.579,���쐼,3.5,��
2021/11/29,07:40,0.581,0.878,0.556,1.085,0.758,0.352,0.616,0.581,���쐼,3.3,��
2021/11/29,07:50,0.581,0.877,0.556,1.084,0.756,0.352,0.615,0.581,���쐼,3.8,��
2021/11/29,08:00,0.581,0.876,0.557,1.084,0.756,0.352,0.615,0.581,���쐼,3.3,��
2021/11/29,08:10,0.582,0.877,0.557,1.084,0.757,0.352,0.616,0.581,�쐼,2.6,��
2021/11/29,08:20,0.583,0.877,0.556,1.086,0.757,0.354,0.615,0.584,�쐼,1.7,��
2021/11/29,08:30,0.583,0.878,0.558,1.088,0.758,0.354,0.615,0.581,�쐼,1.4,��
2021/11/29,08:40,0.582,0.878,0.557,1.085,0.757,0.354,0.615,0.580,��쐼,1.5,��
2021/11/29,08:50,0.582,0.879,0.556,1.086,0.757,0.354,0.616,0.581,��쐼,1.9,��
2021/11/29,09:00,0.582,0.876,0.555,1.085,0.754,0.352,0.616,0.582,�쐼,0.9,��
2021/11/29,09:10,0.584,0.877,0.556,1.086,0.757,0.353,0.617,0.581,�쐼,0.9,��
2021/11/29,09:20,0.585,0.878,0.556,1.088,0.758,0.354,0.617,0.582,�쐼,0.9,��
2021/11/29,09:30,0.583,0.874,0.557,1.085,0.758,0.353,0.615,0.583,�쐼,0.8,��
2021/11/29,09:40,0.582,0.873,0.557,1.086,0.758,0.354,0.615,0.582,��쐼,1.2,��
2021/11/29,09:50,0.584,0.876,0.557,1.087,0.759,0.352,0.616,0.582,��쐼,3.0,��
2021/11/29,10:00,0.584,0.875,0.558,1.085,0.758,0.354,0.614,0.583,��쐼,4.7,��
2021/11/29,10:10,0.584,0.876,0.558,1.085,0.758,0.354,0.616,0.581,�쐼,3.8,��
2021/11/29,10:20,0.584,0.873,0.558,1.086,0.759,0.353,0.615,0.581,��쐼,3.2,��
2021/11/29,10:30,0.583,0.876,0.557,1.087,0.759,0.355,0.614,0.582,��쐼,3.5,��
2021/11/29,10:40,0.585,0.873,0.558,1.085,0.760,0.355,0.616,0.582,��쐼,2.8,��
2021/11/29,10:50,0.583,0.875,0.559,1.089,0.761,0.353,0.615,0.582,��쐼,4.2,��
2021/11/29,11:00,0.583,0.875,0.560,1.086,0.760,0.354,0.614,0.581,�쐼,4.6,��
2021/11/29,11:10,0.584,0.876,0.559,1.087,0.759,0.354,0.616,0.582,��쐼,4.3,��
2021/11/29,11:20,0.584,0.875,0.556,1.087,0.761,0.354,0.615,0.583,�쐼,5.6,��
2021/11/29,11:30,0.586,0.875,0.558,1.086,0.760,0.353,0.614,0.581,��쐼,5.1,��
2021/11/29,11:40,0.585,0.875,0.558,1.089,0.761,0.354,0.616,0.582,�쐼,6.1,��
2021/11/29,11:50,0.585,0.878,0.560,1.088,0.762,0.354,0.617,0.583,�쐼,3.9,��
2021/11/29,12:00,0.585,0.878,0.560,1.087,0.762,0.354,0.615,0.582,�쐼,4.1,��
2021/11/29,12:10,0.586,0.875,0.561,1.089,0.763,0.355,0.615,0.584,��쐼,3.8,��
2021/11/29,12:20,0.587,0.877,0.559,1.086,0.761,0.356,0.618,0.583,�쐼,4.2,��
2021/11/29,12:30,0.586,0.877,0.560,1.088,0.762,0.354,0.616,0.584,��쐼,4.4,��
2021/11/29,12:40,0.586,0.877,0.560,1.088,0.762,0.355,0.616,0.584,�쐼,4.8,��
2021/11/29,12:50,0.585,0.878,0.560,1.089,0.761,0.354,0.618,0.582,�쐼,3.4,��
2021/11/29,13:00,0.588,0.877,0.562,1.088,0.762,0.354,0.616,0.583,�쐼,3.5,��
2021/11/29,13:10,0.586,0.877,0.559,1.088,0.762,0.356,0.617,0.583,��,2.6,��
2021/11/29,13:20,0.588,0.877,0.561,1.088,0.764,0.356,0.620,0.582,��,2.3,��
2021/11/29,13:30,0.586,0.878,0.560,1.090,0.761,0.354,0.618,0.582,��,1.9,��
2021/11/29,13:40,0.587,0.878,0.561,1.087,0.761,0.355,0.618,0.583,��,2.0,��
2021/11/29,13:50,0.588,0.875,0.562,1.085,0.761,0.356,0.619,0.583,��,2.3,��
2021/11/29,14:00,0.586,0.876,0.561,1.087,0.751,0.356,0.620,0.583,��쓌,3.4,��
2021/11/29,14:10,0.586,0.877,0.561,1.088,0.754,0.356,0.618,0.581,��,2.2,��
2021/11/29,14:20,0.587,0.876,0.561,1.090,0.760,0.354,0.619,0.584,��쓌,1.9,��
2021/11/29,14:30,0.588,0.878,0.562,1.087,0.765,0.354,0.618,0.582,��쓌,2.0,��
2021/11/29,14:40,0.586,0.877,0.559,1.088,0.763,0.356,0.618,0.582,��,2.5,��
2021/11/29,14:50,0.585,0.881,0.559,1.091,0.761,0.355,0.618,0.584,�쐼,1.7,��
2021/11/29,15:00,0.585,0.880,0.560,1.090,0.761,0.356,0.618,0.583,��,1.5,��
2021/11/29,15:10,0.584,0.881,0.561,1.089,0.761,0.356,0.619,0.585,��쐼,1.2,��
2021/11/29,15:20,0.585,0.882,0.563,1.091,0.762,0.355,0.616,0.583,���쐼,0.8,��
2021/11/29,15:30,0.585,0.880,0.561,1.088,0.762,0.357,0.618,0.583,�쐼,1.1,��
2021/11/29,15:40,0.586,0.882,0.561,1.087,0.762,0.356,0.618,0.584,�쐼,2.5,��
2021/11/29,15:50,0.585,0.884,0.561,1.088,0.762,0.356,0.620,0.582,��쐼,2.3,��
2021/11/29,16:00,0.586,0.882,0.561,1.089,0.762,0.355,0.619,0.583,��,1.5,��
2021/11/29,16:10,0.586,0.880,0.559,1.089,0.761,0.355,0.619,0.582,��,1.7,��
2021/11/29,16:20,0.586,0.883,0.558,1.086,0.762,0.355,0.618,0.581,���k��,2.0,��
2021/11/29,16:30,0.587,0.878,0.559,1.089,0.761,0.355,0.618,0.583,���k��,2.9,��
2021/11/29,16:40,0.586,0.881,0.558,1.088,0.761,0.355,0.620,0.582,���k��,3.3,��
2021/11/29,16:50,0.585,0.878,0.558,1.088,0.761,0.356,0.617,0.582,���k��,2.6,��
2021/11/29,17:00,0.587,0.880,0.560,1.088,0.760,0.355,0.618,0.582,���k��,2.6,��
2021/11/29,17:10,0.586,0.880,0.558,1.089,0.760,0.356,0.618,0.582,���k��,2.9,��
2021/11/29,17:20,0.586,0.879,0.559,1.086,0.763,0.355,0.618,0.582,���k��,2.9,��
2021/11/29,17:30,0.585,0.879,0.559,1.086,0.761,0.354,0.617,0.583,���k��,2.8,��
2021/11/29,17:40,0.585,0.881,0.561,1.087,0.762,0.354,0.618,0.581,���k��,2.6,��
2021/11/29,17:50,0.585,0.879,0.560,1.088,0.759,0.355,0.618,0.583,���k��,2.5,��
2021/11/29,18:00,0.587,0.881,0.560,1.086,0.762,0.354,0.615,0.581,�k��,2.9,��
2021/11/29,18:10,0.584,0.881,0.558,1.088,0.763,0.355,0.617,0.581,�k��,3.4,��
2021/11/29,18:20,0.586,0.880,0.559,1.088,0.759,0.355,0.616,0.581,�k��,3.7,��
2021/11/29,18:30,0.586,0.878,0.559,1.089,0.761,0.354,0.616,0.582,�k��,4.2,��
2021/11/29,18:40,0.585,0.879,0.558,1.088,0.762,0.353,0.616,0.581,�k��,4.5,��
2021/11/29,18:50,0.584,0.881,0.559,1.088,0.761,0.354,0.617,0.581,�k��,3.9,��
2021/11/29,19:00,0.585,0.880,0.560,1.086,0.759,0.354,0.617,0.582,���k��,3.0,��
2021/11/29,19:10,0.584,0.882,0.560,1.086,0.760,0.354,0.617,0.583,�k��,2.2,��
2021/11/29,19:20,0.584,0.880,0.560,1.089,0.762,0.354,0.616,0.581,�k��,1.7,��
2021/11/29,19:30,0.587,0.881,0.559,1.088,0.760,0.354,0.616,0.581,�k,0.9,��
2021/11/29,19:40,0.588,0.882,0.559,1.088,0.761,0.354,0.616,0.583,�k��,1.7,��
2021/11/29,19:50,0.584,0.881,0.560,1.089,0.763,0.354,0.617,0.581,���k��,2.6,��
2021/11/29,20:00,0.586,0.880,0.560,1.089,0.762,0.354,0.617,0.582,��,2.8,��
2021/11/29,20:10,0.585,0.879,0.559,1.088,0.761,0.355,0.616,0.582,���k��,2.8,��
2021/11/29,20:20,0.586,0.881,0.560,1.088,0.760,0.353,0.616,0.583,�k��,3.0,��
2021/11/29,20:30,0.584,0.881,0.560,1.088,0.763,0.354,0.617,0.582,���k��,2.6,��
2021/11/29,20:40,0.586,0.880,0.557,1.091,0.760,0.354,0.617,0.582,���k��,1.4,��
2021/11/29,20:50,0.586,0.880,0.559,1.089,0.762,0.355,0.617,0.581,��쓌,0.9,��
2021/11/29,21:00,0.584,0.879,0.559,1.089,0.761,0.354,0.615,0.582,��쓌,0.9,��
2021/11/29,21:10,0.586,0.879,0.559,1.091,0.760,0.355,0.616,0.582,���쓌,1.2,��
2021/11/29,21:20,0.585,0.880,0.559,1.087,0.761,0.355,0.617,0.581,���쓌,1.4,��
2021/11/29,21:30,0.584,0.879,0.557,1.089,0.762,0.354,0.615,0.582,���쓌,1.7,��
2021/11/29,21:40,0.585,0.880,0.557,1.088,0.761,0.355,0.616,0.582,���쓌,1.2,��
2021/11/29,21:50,0.585,0.879,0.558,1.087,0.758,0.355,0.617,0.581,��,1.4,��
2021/11/29,22:00,0.585,0.879,0.558,1.090,0.761,0.353,0.615,0.582,���k��,1.2,��
2021/11/29,22:10,0.585,0.879,0.558,1.088,0.761,0.356,0.616,0.582,��,1.2,��
2021/11/29,22:20,0.585,0.881,0.558,1.090,0.761,0.354,0.615,0.582,�k��,0.9,��
2021/11/29,22:30,0.586,0.881,0.558,1.087,0.759,0.354,0.616,0.582,�k,0.9,��
2021/11/29,22:40,0.587,0.878,0.558,1.087,0.759,0.353,0.617,0.580,�k��,0.8,��
2021/11/29,22:50,0.586,0.880,0.560,1.087,0.759,0.355,0.615,0.582,�k�k��,0.8,��
2021/11/29,23:00,0.585,0.879,0.558,1.089,0.760,0.354,0.616,0.582,�k,0.9,��
2021/11/29,23:10,0.584,0.883,0.559,1.086,0.759,0.355,0.616,0.583,�k,1.4,��
2021/11/29,23:20,0.585,0.880,0.557,1.087,0.760,0.354,0.617,0.582,�k�k��,0.9,��
2021/11/29,23:30,0.586,0.880,0.560,1.088,0.759,0.355,0.616,0.581,�k,0.9,��
2021/11/29,23:40,0.584,0.880,0.559,1.089,0.762,0.353,0.616,0.583,�k�k��,0.8,��
2021/11/29,23:50,0.584,0.879,0.558,1.086,0.760,0.355,0.617,0.581,�k,1.2,��
